Theta_e
338 336 333 327 326 322 317 313 301 303 301 298 299 301 299 304 305 304 304 307 305 310 313 312 311 310 311 320 324 327 328 321 325 319 317 337 349 351 353 354 355 353 352 351 353 355 356 356 355 355 355 356 356 356 356 357 356 356 356 355 355 355 355 355 354 354 353 352 352 352 352 351 351 352 352 351 351 351 350 349 349 350 350 348 345 347 347 347 347 347 347 347 348 348 347 347 345
331 330 328 326 324 318 310 311 302 302 300 298 300 302 302 305 304 302 303 303 305 307 310 310 312 313 316 324 329 331 329 331 336 336 340 347 351 352 354 355 354 351 351 352 352 353 354 356 354 355 355 355 355 356 356 356 356 356 356 355 355 355 355 354 354 353 352 352 351 351 351 350 351 351 350 350 351 351 350 351 352 350 347 346 348 348 348 348 348 348 348 348 349 348 348 347 347
325 325 322 324 319 317 312 307 298 299 297 296 300 301 304 301 301 303 304 305 307 309 310 310 315 317 321 330 328 328 326 337 339 340 341 349 344 348 353 355 354 352 352 353 351 351 352 354 354 354 355 354 355 355 355 355 355 355 355 355 355 354 354 354 353 353 352 352 352 351 351 350 350 350 350 350 351 352 352 352 350 347 347 347 348 348 348 348 349 349 349 348 349 349 348 347 347
327 326 320 317 309 312 305 303 299 298 296 298 298 301 303 303 303 304 306 307 309 310 310 310 314 334 328 325 329 332 329 333 341 341 340 344 348 351 353 354 355 352 352 350 351 351 352 354 353 353 354 354 354 354 354 354 354 354 354 354 354 354 353 353 353 352 352 351 351 351 351 351 350 350 350 351 353 353 353 352 350 347 347 348 349 349 349 350 350 350 350 349 349 349 348 347 347
323 322 325 317 312 304 305 302 301 300 296 299 298 301 302 304 303 304 306 309 310 310 309 314 316 332 336 333 334 327 333 339 339 343 342 348 352 353 353 354 353 351 349 349 350 351 352 353 353 353 353 353 354 354 354 354 354 354 353 353 353 352 353 353 352 352 351 351 351 351 351 350 350 350 351 352 352 352 353 352 350 349 349 350 350 351 351 350 350 350 349 349 349 349 348 347 346
322 320 320 318 309 313 306 299 298 298 301 302 299 302 303 305 304 305 307 309 311 311 312 317 321 328 329 335 337 333 339 332 340 342 345 347 352 354 354 354 352 349 349 350 351 351 350 354 353 352 352 353 353 353 353 353 353 353 353 353 352 352 352 353 353 352 351 351 351 351 351 351 350 350 351 352 351 351 351 352 351 350 349 349 350 350 350 350 350 349 349 350 350 348 347 346 346
315 316 313 312 309 309 301 299 299 300 302 303 301 302 304 305 305 307 309 310 311 310 321 322 327 328 325 335 338 342 344 343 341 342 347 350 354 354 354 353 351 349 351 351 350 350 351 353 352 352 352 352 353 353 352 352 352 352 351 351 351 351 352 352 353 352 352 351 352 351 350 350 350 350 350 351 351 351 351 351 351 351 350 350 350 349 350 350 350 350 349 349 348 347 347 346 346
321 313 309 304 303 302 299 299 299 301 302 303 305 303 304 305 307 308 310 310 309 309 316 313 313 325 332 337 330 339 345 346 346 347 350 352 353 354 354 354 350 348 350 351 351 351 354 352 352 352 352 352 351 351 352 352 352 352 352 351 352 352 352 352 352 353 352 352 351 350 349 349 349 350 350 350 350 350 350 350 350 349 351 350 350 350 349 349 350 349 348 347 346 345 345 346 346
316 312 312 307 301 302 299 299 300 304 302 304 304 306 311 307 308 307 308 312 315 313 311 310 310 316 330 332 334 339 343 347 348 350 351 352 352 354 353 353 351 350 349 349 352 352 352 353 352 352 352 352 352 351 352 352 352 352 352 352 352 353 353 352 351 352 351 349 349 350 349 349 349 349 349 349 350 350 349 348 349 348 349 349 349 349 349 349 349 348 347 345 345 345 347 347 347
310 311 303 303 303 298 298 299 298 301 301 304 303 304 306 307 307 309 311 313 315 313 313 312 316 318 331 333 333 338 342 349 349 348 352 354 355 356 354 354 353 351 349 350 351 350 349 353 351 352 351 352 352 352 351 351 352 351 351 352 352 353 353 352 352 351 350 349 348 348 349 349 349 349 349 350 350 348 347 348 348 348 348 349 349 349 348 348 347 347 346 346 346 346 347 347 347
305 308 311 301 298 296 296 298 300 302 302 303 304 306 307 308 308 310 313 314 317 310 310 313 313 321 328 334 337 345 347 348 347 347 352 353 355 356 354 353 353 353 350 352 352 351 351 352 353 352 352 352 352 352 351 352 351 351 351 352 352 352 352 352 351 351 351 350 350 349 349 350 349 349 350 349 348 347 347 347 347 348 348 349 348 348 347 347 346 346 347 346 346 346 346 346 347
305 303 304 297 298 297 298 298 299 301 302 303 303 306 308 307 309 309 312 314 319 310 308 315 319 325 325 331 334 343 346 347 348 351 352 354 354 356 353 353 353 353 354 353 352 351 348 352 353 354 352 352 351 352 352 352 351 351 351 351 351 352 351 351 351 351 351 351 349 350 351 351 350 350 350 349 349 347 347 347 347 348 348 348 348 347 346 346 346 346 346 345 345 345 346 346 347
306 305 301 298 299 299 300 298 299 300 300 302 304 305 308 307 306 309 315 316 321 308 310 321 335 329 326 328 338 342 342 347 350 351 352 352 352 352 353 352 353 354 355 354 351 350 350 350 349 352 352 352 351 351 351 351 351 351 351 351 351 351 351 352 351 351 351 351 350 350 351 350 350 350 350 350 348 348 347 348 349 348 347 347 346 346 346 345 345 344 344 344 344 345 345 346 346
305 305 303 298 302 299 298 299 300 298 300 303 305 307 308 306 307 309 314 314 321 322 326 327 331 332 332 335 335 337 342 348 350 352 351 351 352 352 352 352 353 352 355 352 350 350 349 348 350 352 354 352 354 353 352 351 351 350 350 350 351 351 351 351 351 351 351 351 350 351 350 350 350 349 349 350 350 349 349 349 348 348 348 347 347 346 345 345 345 344 343 342 343 344 345 345 346
305 308 303 300 299 299 300 297 298 298 300 304 304 306 307 308 308 309 310 312 321 333 336 334 335 329 324 327 329 334 341 347 349 350 351 352 351 352 354 353 352 353 354 351 350 349 347 348 349 352 352 350 353 349 351 354 351 350 350 351 351 351 351 351 350 350 349 349 349 349 350 350 350 347 347 348 349 348 347 347 347 347 347 347 346 346 345 344 343 342 342 341 341 342 345 346 345
308 305 302 299 297 297 300 299 300 298 300 304 306 307 306 307 309 307 310 321 325 334 334 328 337 329 330 328 333 340 344 347 350 351 349 348 350 354 352 352 352 353 352 351 349 348 348 346 348 350 350 351 352 352 354 356 353 351 351 351 351 350 350 350 350 350 350 349 348 349 349 350 348 347 346 348 347 346 346 346 346 346 346 346 345 345 344 343 343 341 341 339 340 341 343 344 345
310 306 300 298 296 297 300 299 300 297 302 304 307 306 303 304 309 309 311 328 321 318 327 334 331 338 335 337 340 344 346 348 348 347 346 345 347 346 347 349 349 350 349 350 350 349 349 348 347 349 350 354 352 356 355 351 354 351 351 350 350 350 350 350 350 350 349 348 348 347 346 351 349 346 348 348 345 348 345 345 346 345 345 345 344 344 343 342 341 340 341 340 340 340 341 343 344
306 300 299 297 299 298 302 300 301 303 301 304 305 306 304 303 307 308 311 318 316 326 326 334 338 338 340 341 344 345 346 346 346 344 341 342 345 343 345 346 347 345 345 344 349 348 347 347 348 348 351 350 352 347 351 348 351 350 354 354 350 351 350 349 351 349 349 351 346 348 349 347 347 346 348 346 347 347 346 345 345 345 345 345 344 342 341 341 341 341 340 341 340 340 340 343 346
303 301 300 297 300 302 303 303 303 302 302 304 305 306 305 304 306 308 305 308 309 311 323 327 331 337 340 341 342 343 342 341 340 337 339 341 341 342 341 343 337 342 339 341 344 345 346 347 348 348 351 353 354 349 348 352 352 351 353 352 348 346 349 350 351 351 351 349 351 346 345 344 344 342 349 349 347 345 346 344 344 344 344 344 342 341 341 341 341 341 341 341 341 338 341 342 343
304 302 299 299 303 303 304 303 303 305 305 304 304 305 305 306 307 309 305 306 308 309 312 323 326 332 336 339 341 339 334 337 340 337 340 342 339 343 343 336 337 338 337 342 337 338 343 346 347 349 350 352 351 351 348 347 350 349 350 350 346 346 349 352 352 351 349 346 348 351 350 348 346 344 342 344 344 346 346 344 343 342 343 342 342 341 341 341 341 340 340 339 341 340 341 340 341
305 302 299 301 304 301 303 303 305 305 306 305 305 305 305 307 307 307 306 305 307 309 313 317 324 333 336 338 339 338 336 338 339 341 339 339 339 334 334 333 334 333 336 337 341 340 340 347 347 347 348 350 348 351 351 347 346 348 349 346 345 347 349 349 349 349 350 351 350 351 349 349 349 348 347 344 344 344 345 344 344 342 342 341 341 340 341 336 340 337 339 339 339 340 339 340 341
307 302 303 303 304 300 304 305 305 305 306 305 305 303 304 308 307 306 306 303 304 307 314 324 332 337 336 336 337 340 338 338 338 339 340 338 335 334 333 336 335 332 334 335 337 337 340 344 346 347 348 349 349 348 346 344 344 346 348 345 347 350 349 348 348 348 349 351 351 350 350 350 348 346 347 346 345 345 343 341 342 342 340 340 341 340 339 339 339 339 338 337 339 341 340 340 341
299 304 303 304 306 303 305 306 305 305 305 304 304 306 307 305 305 307 306 305 307 310 314 322 335 337 337 339 338 338 338 338 337 338 339 338 340 340 335 331 329 331 335 334 336 341 341 343 345 347 347 349 345 349 350 349 349 348 347 345 347 347 348 348 346 346 347 349 349 349 349 347 346 345 345 345 344 344 343 343 343 342 341 341 342 340 341 341 339 339 340 338 337 338 338 339 339
302 300 304 304 305 304 305 305 306 306 305 305 307 307 304 304 302 307 305 308 311 313 315 327 336 338 338 337 338 338 338 337 337 339 340 341 341 339 338 332 330 331 334 336 338 341 342 343 347 346 347 348 349 349 348 349 348 347 347 345 345 346 346 343 348 347 348 348 348 349 348 346 343 342 343 343 344 344 342 343 342 339 339 340 344 343 342 341 341 342 342 342 338 336 335 337 337
300 299 302 303 304 305 306 306 306 306 306 307 306 303 303 305 304 305 305 310 316 326 328 336 337 337 337 337 337 338 338 338 339 340 342 341 340 337 336 335 332 332 334 339 342 342 345 345 346 345 346 345 346 345 343 344 345 344 345 344 344 346 349 347 347 347 347 348 350 350 348 346 344 342 341 341 343 341 341 341 340 340 341 341 344 342 343 343 345 343 343 342 343 341 336 336 335
302 301 303 304 303 304 305 305 305 305 306 306 303 303 304 306 306 304 306 320 328 330 335 336 336 335 335 336 338 338 339 338 339 340 340 341 333 335 335 335 335 333 334 340 343 344 345 347 345 345 346 345 345 343 342 344 344 343 345 345 344 346 349 348 344 344 346 344 348 349 345 344 343 340 340 341 340 340 340 342 340 340 341 341 341 339 342 341 341 341 341 341 341 342 339 339 336
305 303 303 303 304 305 306 304 304 305 304 304 302 302 303 305 303 301 320 327 329 331 333 335 335 334 336 336 337 338 338 338 340 341 339 335 338 336 337 336 336 336 339 343 343 344 346 346 345 344 345 345 343 339 341 342 342 342 343 345 345 347 348 347 342 339 342 347 349 348 345 342 343 343 342 344 342 340 340 341 341 342 341 341 342 340 341 340 343 343 344 341 340 340 340 339 337
303 303 303 303 303 304 304 304 303 305 303 305 304 302 304 304 304 302 322 326 328 328 331 333 333 335 335 335 335 337 338 339 338 341 337 332 335 335 338 336 337 338 340 341 344 345 345 346 345 345 346 344 340 338 340 340 342 341 343 344 345 344 345 346 342 341 344 347 348 346 344 343 344 344 345 345 342 342 341 341 343 343 342 342 344 343 341 340 339 339 341 341 342 341 340 341 340
303 303 298 300 302 301 303 302 303 304 302 305 305 302 300 302 300 306 318 322 326 327 329 333 332 334 335 334 334 335 335 337 338 339 340 338 336 339 339 342 339 338 341 343 346 345 344 344 344 344 344 344 342 340 339 338 341 339 340 346 345 340 343 346 345 344 344 346 348 346 346 346 346 344 344 342 342 342 343 343 343 344 344 344 344 342 341 341 341 341 343 343 341 340 340 340 340
304 303 300 299 300 299 303 303 303 302 303 304 303 293 298 301 304 312 322 321 326 326 327 331 332 334 334 333 333 334 335 336 337 339 341 340 340 341 342 343 342 339 338 341 344 343 343 344 344 342 343 342 342 341 338 339 338 338 340 340 344 345 345 344 344 343 341 344 347 346 347 346 345 343 342 345 346 345 344 342 342 339 340 341 342 342 341 342 341 341 340 340 338 339 338 339 338
299 301 301 297 297 297 301 302 302 301 303 302 303 295 298 302 304 311 322 324 323 324 326 330 331 332 333 333 333 334 335 336 336 338 341 342 342 343 344 344 343 343 339 340 341 342 343 340 341 340 342 342 341 340 338 337 338 338 340 341 343 345 344 343 343 343 345 344 344 344 345 345 344 345 345 346 346 345 343 342 340 338 340 341 340 340 340 340 340 339 337 336 338 337 338 338 338
301 296 295 298 296 298 300 303 302 299 302 304 301 296 298 302 305 315 321 325 322 321 324 328 329 331 334 333 334 333 334 337 338 338 340 343 344 342 343 343 343 342 341 342 342 342 341 342 343 341 340 339 341 339 337 338 339 340 340 340 344 345 343 342 342 335 337 343 342 344 345 345 343 344 345 346 344 343 342 342 340 340 340 340 339 340 340 338 338 338 339 339 335 335 337 337 340
300 297 297 296 297 297 298 301 302 302 301 303 301 297 300 300 305 313 321 323 321 321 322 326 329 331 333 334 334 334 334 335 337 338 339 342 343 343 343 342 341 341 342 342 342 342 342 342 342 342 341 341 339 338 337 337 338 339 339 340 341 344 343 342 341 342 341 339 343 342 345 344 342 342 342 342 344 343 343 343 342 342 341 341 340 340 339 340 340 338 339 339 338 336 336 337 338
297 298 296 298 296 297 295 300 302 302 301 299 302 298 300 303 304 314 318 321 320 319 321 325 327 330 332 334 334 334 334 334 334 337 340 341 341 343 342 340 340 341 342 343 344 342 343 341 341 342 341 339 338 337 338 337 337 338 338 339 341 343 343 342 339 340 341 342 342 343 345 344 343 343 344 344 345 344 344 344 343 344 343 342 342 342 342 343 343 341 339 339 340 339 337 338 337
296 296 295 296 297 297 296 296 299 301 301 299 300 300 300 302 304 307 317 318 319 319 320 324 322 327 329 330 332 333 334 334 335 337 340 341 341 342 339 339 340 341 342 343 344 344 344 342 341 340 337 335 335 336 336 337 337 339 339 339 341 343 342 342 342 341 341 342 342 342 343 344 343 344 346 346 346 345 344 344 344 345 344 342 342 340 340 341 341 342 340 339 340 340 339 339 338
297 298 297 297 296 296 296 298 301 300 298 298 299 298 300 302 303 306 312 318 317 318 321 321 324 326 327 328 330 331 333 335 337 340 341 340 339 337 337 338 338 339 341 342 342 343 342 341 340 338 336 336 338 337 336 335 336 335 334 335 336 338 341 340 342 342 342 342 343 342 343 344 344 346 346 346 346 345 344 343 344 344 344 343 341 339 338 338 339 338 339 337 336 336 338 338 338
298 297 296 296 296 297 298 298 300 302 298 298 299 300 300 301 303 306 307 311 316 317 318 320 320 322 324 326 328 330 333 334 338 340 340 340 339 337 337 337 337 339 340 341 341 342 341 339 337 334 335 337 337 335 335 334 334 333 334 334 334 336 339 341 341 342 342 342 344 343 344 343 345 345 344 344 344 342 344 344 343 343 342 342 340 339 339 339 340 340 337 337 336 335 336 338 337
297 297 296 295 296 295 298 298 300 302 299 297 300 299 300 301 303 306 309 307 307 313 317 320 321 321 322 323 326 328 332 335 337 338 339 338 337 337 336 335 336 336 337 339 340 340 341 340 337 336 338 337 336 337 337 337 337 335 335 335 335 336 338 338 339 342 343 344 344 343 344 344 344 344 343 343 344 345 344 342 343 342 342 341 342 341 339 339 340 339 338 336 338 335 334 335 335
299 296 296 295 296 298 299 299 300 301 299 297 299 298 299 301 303 306 308 308 309 310 315 319 321 321 321 322 325 327 329 332 335 336 338 336 336 335 334 335 336 337 338 339 341 341 340 338 338 336 337 337 338 338 338 336 338 339 339 337 336 336 339 341 341 341 342 342 344 344 345 345 344 343 344 344 344 344 344 343 343 342 343 342 341 340 339 338 338 338 338 335 333 336 335 337 337
298 297 295 294 297 295 293 299 300 300 299 298 300 298 300 302 304 305 308 308 311 311 313 317 321 321 321 322 325 327 328 330 332 332 336 334 333 333 334 334 334 336 337 338 339 340 339 337 337 337 338 338 338 338 338 339 340 341 341 341 339 338 337 339 340 340 340 342 341 343 343 343 342 342 342 342 342 342 343 343 342 342 342 342 341 339 339 338 340 340 338 336 335 332 332 334 339
299 298 296 296 296 296 295 297 300 301 300 301 298 297 296 300 299 301 306 313 313 313 313 318 322 322 324 324 326 328 328 329 331 332 335 332 331 332 332 333 335 335 337 338 339 339 338 337 337 338 338 337 337 337 337 339 340 340 340 339 340 339 340 339 338 337 338 339 340 341 341 343 343 342 343 343 341 342 343 342 341 340 340 341 342 340 339 338 338 338 339 337 336 333 331 334 337
296 300 299 297 298 296 297 298 296 295 295 300 297 290 292 299 300 300 304 313 311 313 313 312 316 322 323 323 325 328 329 330 332 332 331 331 330 330 331 332 333 333 335 338 339 340 339 339 338 338 338 337 336 337 338 337 337 338 335 332 331 331 331 332 333 333 336 336 337 342 342 343 343 344 343 343 342 342 342 342 342 340 340 340 340 339 339 340 339 337 337 338 335 336 334 332 333
295 297 301 299 298 297 296 296 296 290 289 298 302 291 288 298 298 301 303 305 307 315 316 315 314 316 320 323 325 327 328 329 333 334 332 331 329 329 329 330 332 332 334 338 339 339 340 339 339 339 337 337 338 337 337 336 335 336 334 334 333 332 330 333 336 338 338 337 339 340 341 344 344 343 343 344 343 342 344 344 343 341 339 339 338 339 338 339 338 337 338 336 334 335 335 330 331
293 301 299 298 297 296 296 296 295 294 299 300 299 297 292 292 297 301 303 306 307 311 315 316 314 314 317 323 324 325 327 329 331 332 331 330 328 328 328 329 331 332 334 337 336 339 339 339 339 338 338 336 333 331 331 335 334 335 335 336 335 335 334 335 338 339 341 339 339 340 342 343 342 340 342 343 344 342 343 342 342 342 341 340 339 339 339 340 340 340 340 338 336 336 335 332 329
297 299 299 297 297 298 297 296 295 296 296 292 296 299 292 292 297 304 307 303 308 309 312 314 315 315 317 322 323 326 328 330 332 330 328 327 328 329 329 329 331 332 334 335 337 336 338 339 337 337 334 330 330 330 331 333 335 337 337 335 335 336 337 336 337 338 338 339 339 339 339 338 339 339 338 339 339 338 339 339 341 341 339 336 335 334 339 341 341 341 339 337 336 335 335 334 331
300 300 300 299 299 298 298 296 296 296 293 288 294 298 290 291 297 299 306 304 306 309 311 313 315 318 319 321 325 327 328 329 330 330 328 327 328 328 330 331 330 328 328 328 329 334 337 339 337 333 330 331 331 332 333 334 335 336 335 336 335 335 336 336 337 335 336 338 338 338 336 335 336 337 339 338 337 337 336 336 336 335 336 334 332 332 333 336 341 341 340 338 337 335 336 335 333
302 299 298 298 297 298 298 298 297 296 287 291 295 298 294 287 295 298 301 306 307 310 312 314 315 317 321 323 324 325 326 328 327 328 330 330 330 331 332 331 328 326 329 331 330 328 333 335 332 333 331 331 331 332 335 332 330 333 332 333 336 336 336 336 335 335 336 338 336 334 335 334 334 334 336 337 337 335 336 335 334 334 335 335 332 331 333 331 334 337 341 341 339 337 336 337 336
300 297 296 296 295 298 296 296 297 287 285 293 297 297 297 286 293 306 311 312 311 311 311 311 313 318 319 321 322 324 326 326 328 328 328 329 330 331 332 330 328 329 331 331 330 331 330 335 333 329 328 328 328 332 334 333 336 337 335 337 336 335 334 335 336 337 337 336 333 332 333 333 333 334 334 334 335 335 336 335 335 335 333 334 333 333 333 331 333 334 335 337 339 340 339 337 338
297 296 296 291 289 289 285 291 285 286 285 294 297 296 293 292 300 305 310 310 310 313 313 314 314 317 319 320 320 323 325 326 327 327 326 327 328 329 329 328 329 329 330 330 326 326 330 330 330 327 327 327 328 331 330 333 333 333 334 336 337 336 336 336 336 336 335 333 332 332 332 330 331 332 332 333 334 336 335 335 334 333 333 334 334 332 333 333 333 333 334 335 336 337 338 338 336
295 294 293 290 285 284 281 286 288 288 293 297 296 297 292 296 305 310 309 311 313 314 315 316 316 318 318 320 322 322 323 325 325 326 327 327 327 327 328 329 328 329 330 330 327 325 325 329 331 331 330 331 331 332 332 333 333 335 337 338 337 336 337 338 336 334 334 334 333 332 331 331 330 331 332 332 333 334 334 334 335 334 334 334 334 334 334 334 334 330 332 333 335 337 339 339 338
295 298 295 293 291 286 281 285 282 285 288 294 298 292 289 291 299 310 312 313 315 315 316 317 318 319 319 320 321 321 322 324 324 325 324 325 326 327 328 330 330 330 330 331 328 326 328 329 331 330 331 331 332 332 333 332 333 334 336 336 335 335 337 336 336 336 335 334 334 332 332 331 330 331 331 334 334 335 335 335 334 333 332 334 334 334 333 333 333 328 329 332 331 332 336 337 337
299 299 299 294 291 296 288 290 291 290 290 290 292 290 298 298 309 313 314 313 314 315 315 316 316 318 319 318 318 319 321 321 322 323 324 325 327 328 328 329 329 330 331 332 332 331 331 332 333 332 332 332 332 333 333 332 333 334 332 331 334 336 335 335 334 335 336 335 333 331 331 332 332 332 333 334 335 335 334 333 332 331 331 332 332 331 330 329 330 328 327 330 329 329 333 335 334
297 297 292 295 302 299 292 290 297 289 289 287 294 294 298 307 308 310 311 311 312 314 314 314 315 316 317 316 317 318 319 320 322 323 324 326 327 328 330 330 330 330 331 331 332 334 334 333 333 333 333 333 333 333 332 332 332 333 329 330 335 336 336 334 333 334 334 334 333 332 331 331 334 333 333 335 335 334 334 333 330 330 330 330 330 329 328 328 328 329 329 330 330 331 330 329 330
299 293 296 301 303 301 295 287 288 287 285 287 295 290 294 293 292 307 307 307 309 309 311 312 314 316 315 316 318 318 319 320 322 324 325 326 327 328 329 329 330 331 332 333 333 334 334 333 333 333 332 332 333 333 332 333 333 333 331 332 335 336 335 335 335 335 335 334 333 332 333 332 331 333 333 334 334 334 334 331 329 328 330 329 329 328 326 326 328 327 328 329 329 330 329 329 330
298 296 303 295 289 288 295 290 284 284 283 286 291 293 294 295 295 302 303 305 306 308 310 312 312 314 315 316 318 319 320 320 321 322 324 326 327 327 329 328 330 331 333 334 332 332 333 333 333 333 332 333 334 334 334 334 335 334 332 334 337 336 333 333 333 334 335 334 333 332 331 331 333 333 331 333 333 332 332 329 328 327 328 328 329 328 326 326 326 325 325 325 328 327 326 326 330
301 302 299 301 299 294 289 290 293 292 285 284 287 292 288 299 302 306 304 306 308 307 309 310 311 313 314 315 316 318 319 321 322 323 324 325 326 327 328 327 328 330 332 332 332 331 330 331 331 332 333 333 335 335 333 333 333 333 334 336 338 336 333 331 332 333 333 332 331 331 332 333 331 330 330 331 330 330 329 328 326 325 325 326 325 326 326 325 325 324 324 322 324 324 322 325 328
295 296 295 297 298 302 299 299 293 291 286 287 285 285 290 301 307 306 305 307 308 309 309 310 311 312 313 315 316 318 320 321 321 322 321 323 324 325 326 327 329 328 330 331 330 327 328 330 331 332 332 332 334 336 335 334 334 334 335 337 337 335 333 331 332 333 332 332 332 332 331 331 330 329 331 331 330 329 327 327 324 323 323 323 324 325 326 325 324 323 323 322 322 321 320 324 327
298 296 295 297 295 293 288 287 297 295 291 287 286 285 295 302 306 307 306 308 309 310 309 308 310 311 313 315 316 318 319 320 321 320 319 320 322 323 325 327 328 329 329 328 326 325 325 328 331 332 331 331 333 334 335 336 334 336 335 336 337 336 334 332 333 333 332 331 331 331 331 330 328 329 331 330 328 328 327 325 323 321 321 321 322 324 324 324 322 322 322 322 322 320 321 323 326
Wind_Speed
5 6 2 4 4 4 5 5 7 5 5 7 6 5 3 1 3 2 4 3 5 6 4 5 7 8 8 7 9 9 7 9 7 8 4 2 4 10 10 14 17 17 16 15 15 15 17 15 14 16 17 17 17 18 19 18 18 18 19 18 19 18 19 18 18 18 17 16 17 17 18 17 17 14 13 14 14 14 14 15 15 15 15 15 17 17 17 17 16 16 15 15 14 13 14 14 13
4 3 4 4 5 5 5 3 5 3 5 6 7 1 3 4 4 3 4 4 6 7 9 9 10 10 8 9 8 8 10 3 8 6 4 4 9 8 12 15 16 17 16 15 15 14 15 16 14 17 18 17 17 19 19 18 18 18 18 18 18 18 18 18 18 17 17 17 18 18 18 18 17 15 15 15 14 14 13 14 16 16 16 16 16 17 16 16 15 15 15 15 14 13 14 14 13
4 5 5 5 5 6 2 4 6 3 5 6 3 1 4 5 2 3 4 7 8 9 10 11 10 8 8 7 8 7 4 1 4 6 5 8 9 7 13 15 16 16 17 14 14 14 14 16 15 17 18 18 18 19 21 20 19 19 18 18 18 18 17 18 18 18 17 17 17 17 17 17 17 16 15 15 14 12 13 16 17 17 16 16 16 17 16 15 15 15 14 13 13 12 11 12 12
3 4 4 7 5 4 5 4 6 6 6 3 4 7 2 3 4 5 7 8 9 9 8 7 8 7 6 8 3 2 2 2 6 5 6 8 6 12 13 15 16 13 14 13 14 14 14 15 14 16 17 17 17 18 18 21 22 21 18 18 18 20 18 17 18 17 17 18 18 18 17 16 16 16 16 13 10 13 14 14 15 17 17 16 15 15 14 14 14 14 14 12 12 11 10 9 9
5 5 4 5 5 5 5 3 5 4 7 2 1 5 3 3 7 8 9 9 9 8 7 5 6 3 3 4 4 4 6 2 3 3 5 6 11 14 14 16 14 14 15 15 13 13 15 18 14 16 16 17 18 18 18 18 19 19 20 19 20 20 18 18 17 16 17 17 17 18 18 17 17 16 15 12 12 12 12 13 14 15 15 14 13 12 13 12 13 12 12 12 12 10 9 9 8
4 4 4 5 4 5 5 5 6 7 5 4 5 4 3 5 9 10 10 9 8 6 4 5 6 4 5 4 5 3 3 1 4 4 8 8 14 16 16 14 14 14 16 14 13 13 15 17 16 15 16 17 17 20 20 21 19 20 19 19 19 19 18 16 15 16 16 17 17 18 18 17 18 18 16 14 13 13 13 12 11 13 14 15 15 14 13 12 12 12 11 12 11 10 9 8 7
5 6 5 5 3 4 6 6 6 4 2 2 5 6 8 9 9 10 10 9 1 4 1 3 3 3 5 5 7 5 1 3 6 6 6 12 15 17 16 15 13 15 16 13 13 14 19 16 16 16 16 17 17 18 20 21 21 20 20 20 19 19 17 16 14 16 17 16 17 17 17 17 18 17 16 15 15 13 11 11 12 12 12 13 14 14 13 13 12 11 11 11 10 8 6 5 5
3 6 5 7 4 5 7 7 7 4 2 3 6 7 8 9 8 9 9 8 4 6 2 4 4 7 5 5 2 5 4 2 1 8 10 12 14 16 16 14 13 15 15 13 13 14 18 16 16 16 16 17 20 21 21 20 19 18 19 19 18 17 17 16 15 14 14 15 15 16 17 14 17 17 17 17 16 14 13 12 12 12 11 12 12 13 12 12 12 11 11 10 8 7 5 4 4
6 6 1 6 7 4 6 7 5 1 5 3 2 2 4 6 8 9 9 7 8 6 6 5 4 8 7 5 4 4 4 4 7 10 13 13 15 16 12 15 15 14 14 14 14 15 17 15 15 15 16 19 19 21 20 21 18 17 17 17 16 16 14 14 15 13 12 11 14 17 16 15 13 16 16 17 17 15 14 13 12 12 11 10 12 12 12 12 12 10 9 9 7 6 4 3 4
5 6 6 5 4 7 6 6 6 1 1 4 4 5 4 6 7 8 8 8 7 7 6 4 3 8 6 6 7 6 4 6 10 12 12 13 15 14 14 15 17 17 15 14 14 15 14 17 13 15 15 17 18 18 18 18 17 17 17 16 14 14 13 13 13 13 13 15 15 16 15 15 14 14 16 17 17 16 15 13 12 12 11 12 13 13 12 11 11 10 9 8 6 6 4 4 5
5 5 4 7 7 7 6 5 4 4 2 2 1 4 4 6 7 7 8 8 4 4 2 3 7 8 6 6 4 4 6 9 12 13 12 13 14 13 13 15 16 17 15 16 15 14 15 16 17 14 14 15 16 17 17 17 16 16 15 14 14 13 13 14 14 15 15 17 17 18 14 14 15 15 15 16 16 15 14 13 13 12 12 12 13 12 12 11 10 10 9 8 7 6 5 5 6
5 6 5 7 6 6 4 5 2 1 1 1 5 3 5 7 7 8 9 10 5 1 2 7 2 7 7 6 5 6 7 10 11 12 13 13 12 13 13 13 15 15 15 16 15 14 16 16 15 15 13 14 16 16 16 16 16 16 15 15 13 13 13 13 14 15 14 14 14 12 14 15 16 14 13 13 13 15 15 14 13 12 12 12 12 11 11 10 9 9 8 7 7 7 6 6 7
6 3 7 7 6 5 5 5 4 3 5 4 5 5 5 5 10 10 9 10 4 2 4 6 4 7 6 4 6 8 10 10 11 12 13 12 12 12 12 12 14 16 16 16 15 16 17 16 15 14 15 17 15 15 16 16 15 16 15 14 13 13 13 12 12 13 14 14 14 14 14 14 14 14 12 12 14 14 15 14 14 13 13 13 12 11 11 10 9 8 8 8 8 8 7 7 8
6 4 4 7 2 7 7 5 3 4 2 9 4 5 5 5 10 9 8 9 6 6 3 1 3 3 5 5 5 7 8 10 11 12 10 12 12 12 13 12 14 15 16 17 16 16 16 16 14 15 17 16 15 15 14 14 15 14 14 13 12 11 11 11 11 11 11 13 13 13 13 13 13 13 12 10 12 12 12 14 14 14 14 14 12 11 10 10 9 8 7 7 7 8 8 7 8
6 1 5 6 6 7 6 7 3 4 5 5 6 5 7 2 8 8 10 10 6 5 3 4 2 8 2 8 7 9 11 12 12 12 11 12 13 12 13 12 13 14 14 16 16 16 16 15 15 14 15 14 16 12 12 12 13 13 13 12 11 11 10 11 11 10 12 14 14 14 13 12 12 11 10 9 8 9 11 14 13 14 13 13 12 12 11 10 8 7 7 6 5 7 8 8 9
5 3 5 6 8 8 5 6 4 6 4 3 7 6 7 3 6 8 9 7 4 1 5 5 4 4 2 5 4 11 15 13 12 11 10 11 11 11 12 12 11 12 12 13 14 14 14 15 14 14 13 14 12 12 12 12 13 13 12 13 13 12 11 11 11 10 11 11 13 13 11 11 10 9 9 8 10 10 13 12 13 14 14 13 13 12 11 10 8 7 7 6 5 5 8 7 8
3 5 6 7 9 8 3 5 3 3 6 3 7 8 9 8 8 5 7 3 7 6 3 1 2 2 5 7 6 15 14 10 11 12 10 8 7 8 10 9 10 10 9 11 11 12 14 15 16 13 13 12 13 11 11 11 12 14 13 14 14 13 12 11 12 12 11 12 13 13 10 8 8 7 7 8 9 8 10 12 13 13 14 14 13 13 11 10 8 6 6 6 6 5 6 7 7
6 7 7 8 7 9 3 3 3 5 5 6 8 9 10 10 9 6 11 4 3 2 2 4 3 3 5 8 10 13 13 13 11 9 7 7 7 7 7 9 7 10 5 5 12 13 14 14 15 11 12 13 13 10 7 8 10 11 12 12 12 13 12 12 12 11 11 10 12 11 6 3 6 6 6 8 9 11 11 11 12 13 13 14 13 11 11 9 7 6 5 6 5 6 6 5 6
8 7 8 9 6 5 4 5 2 4 5 7 8 7 9 9 9 8 10 6 6 4 5 2 6 4 6 10 14 12 12 11 10 8 12 14 10 9 8 4 7 5 6 8 3 5 3 10 12 14 13 14 13 12 8 9 10 9 10 10 9 12 11 10 9 9 9 9 7 8 6 6 8 8 6 7 8 10 11 11 11 12 12 12 12 11 10 9 7 6 5 4 4 5 5 3 3
10 7 8 9 2 3 3 1 2 2 6 7 9 8 9 8 6 8 9 10 7 1 2 5 6 7 9 11 13 14 10 10 15 14 12 12 9 8 6 5 1 5 4 4 6 1 4 1 10 11 13 13 12 10 10 9 7 5 8 8 8 8 9 8 8 8 7 9 8 6 6 7 8 8 9 11 11 10 10 9 10 11 11 10 13 10 10 8 8 6 4 4 6 6 4 4 3
7 9 9 3 4 4 3 1 0 4 7 8 8 9 10 6 9 8 8 10 1 5 8 5 1 10 10 12 15 14 14 11 11 13 11 9 8 8 7 9 7 4 6 4 5 5 7 3 7 9 11 11 10 9 9 8 7 4 7 8 8 8 7 8 7 7 7 7 7 6 7 6 6 8 9 9 8 8 8 8 8 7 6 7 10 7 8 8 8 7 6 6 5 5 5 5 4
2 10 11 3 2 6 2 3 2 6 7 9 8 10 8 10 9 8 8 8 5 7 7 4 5 13 13 16 16 14 13 13 14 15 14 11 11 11 12 5 7 5 4 3 1 4 2 6 8 8 9 9 9 7 9 9 9 8 8 7 8 7 7 7 7 7 7 7 7 7 8 7 7 7 7 6 6 7 7 7 7 7 7 7 7 6 6 7 6 6 7 6 4 4 3 3 5
9 10 12 9 7 9 3 6 8 7 9 9 9 8 9 10 10 9 7 9 8 7 4 2 9 12 13 14 15 14 15 14 15 16 14 12 9 6 10 11 16 6 3 3 4 4 4 8 6 8 7 8 10 9 8 9 8 7 7 7 7 7 7 6 6 6 7 6 7 7 6 6 6 6 6 6 7 6 6 6 5 5 6 6 5 5 5 5 4 5 5 6 5 5 5 5 4
12 8 1 7 8 10 7 9 8 8 9 9 8 10 11 10 11 6 10 9 5 5 3 6 10 13 13 14 14 15 15 15 16 14 14 13 12 14 8 4 10 15 9 4 5 5 7 7 6 7 7 7 7 8 7 5 6 7 7 7 6 6 6 7 6 5 6 6 7 6 6 5 5 5 6 6 6 6 6 5 5 5 4 5 3 3 4 4 4 4 4 4 6 6 6 6 5
12 12 9 7 7 7 7 9 9 9 10 9 8 11 10 9 9 11 12 6 4 1 5 11 12 13 13 13 15 15 15 14 14 14 12 11 9 8 5 6 6 17 9 12 7 8 9 9 9 8 8 6 7 8 8 4 5 7 8 7 7 7 5 6 5 4 5 6 6 6 4 4 5 5 6 6 5 5 4 3 4 4 5 5 4 4 2 3 2 2 2 2 3 2 4 5 6
14 12 7 7 7 6 7 8 9 10 8 6 9 11 10 6 8 13 9 3 2 4 10 11 13 14 14 13 13 14 14 15 14 14 14 11 10 8 7 8 5 7 25 18 13 11 10 10 11 10 9 9 8 7 6 7 7 7 7 7 6 7 5 6 8 4 2 3 6 5 5 3 5 6 7 6 6 6 6 5 5 4 4 4 4 3 2 3 3 2 0 1 2 3 1 3 4
1 8 10 10 8 7 5 7 8 8 8 7 10 11 9 1 6 3 6 4 3 7 9 11 11 12 12 12 12 12 13 14 15 12 12 12 8 8 9 12 3 7 4 11 17 15 12 13 11 11 10 10 8 7 6 8 7 6 6 6 6 4 3 5 5 6 6 7 7 5 5 5 4 5 6 6 6 6 5 5 5 5 4 4 4 4 3 3 2 2 1 1 2 2 2 3 5
6 5 6 7 8 8 7 7 9 7 8 8 9 10 8 6 8 9 5 3 3 6 9 11 11 11 11 12 11 11 11 12 11 13 16 15 9 8 9 9 6 5 7 5 8 11 13 14 13 12 11 11 11 11 7 6 4 7 7 7 5 3 3 4 7 8 7 5 6 6 5 6 5 5 6 6 6 5 5 5 5 4 4 4 3 4 5 4 3 2 1 2 0 2 4 4 2
5 6 8 7 7 8 8 8 6 4 8 6 6 10 11 9 12 4 4 2 5 6 8 11 10 10 11 11 11 10 10 11 11 12 14 12 8 7 10 9 7 7 6 6 7 10 12 12 11 12 13 12 13 11 9 8 4 7 7 6 6 6 5 4 5 6 5 5 6 6 6 7 5 5 6 6 6 5 5 5 4 4 3 3 3 4 4 4 5 5 4 3 4 4 4 4 3
5 7 7 6 8 9 7 3 5 7 5 2 3 7 8 11 12 7 5 4 6 7 8 9 8 9 10 11 11 10 10 12 12 11 11 9 8 9 10 9 9 7 7 6 6 10 9 6 6 8 12 12 12 10 9 7 6 6 5 6 5 7 5 4 5 4 2 7 6 6 7 6 6 6 6 5 5 5 5 5 4 4 3 3 4 4 4 3 3 4 4 4 4 4 4 4 3
7 3 4 6 5 3 8 3 1 7 6 5 7 8 5 7 7 6 5 6 8 8 9 9 8 9 10 11 11 10 11 11 11 11 10 8 8 8 11 10 9 9 8 7 8 9 10 10 8 7 8 10 10 10 10 8 6 4 6 6 6 6 5 5 5 1 2 4 6 7 6 6 6 6 6 5 5 5 5 5 5 4 4 3 3 3 2 2 2 4 4 4 4 3 3 3 3
5 5 8 7 6 5 5 4 3 4 6 4 8 6 9 4 9 8 4 6 8 8 9 10 9 10 9 10 11 11 11 11 11 11 9 8 7 8 11 11 10 8 8 9 9 9 10 10 11 12 12 11 10 10 9 8 6 5 5 5 5 6 5 5 5 7 6 5 7 6 7 7 7 7 6 6 5 5 4 4 4 5 6 5 4 4 3 4 3 3 3 4 4 4 4 4 3
7 8 4 4 4 2 4 8 4 1 3 5 8 6 1 6 6 7 6 6 7 7 10 10 11 11 11 10 10 10 10 12 12 12 10 9 7 8 9 10 10 9 9 10 11 12 12 12 11 12 13 13 11 11 10 8 7 7 6 5 6 6 5 5 4 5 7 7 6 6 7 7 7 7 7 7 5 5 4 4 4 6 5 4 5 5 5 4 5 5 4 4 3 4 5 5 4
7 7 7 4 5 2 4 9 6 2 4 4 5 8 7 3 4 8 5 6 7 7 10 10 8 10 11 10 11 11 10 12 13 13 11 11 8 8 8 8 10 10 10 10 11 12 13 12 8 8 9 9 8 8 8 8 7 8 8 7 7 6 6 5 6 6 5 6 6 6 7 7 6 7 6 6 5 5 5 4 4 5 5 4 4 4 3 3 4 4 4 3 4 4 4 5 5
7 6 7 6 8 7 5 2 9 7 3 7 6 8 8 9 7 6 6 6 6 6 7 9 12 10 10 11 10 11 11 11 13 12 12 12 11 9 9 9 10 11 10 11 11 11 11 11 10 11 11 11 12 12 11 10 11 9 8 8 8 7 6 5 5 6 6 6 6 7 7 7 7 8 7 6 6 5 5 5 5 6 5 4 4 4 4 4 4 4 4 3 1 1 3 4 4
1 5 5 4 5 5 6 5 2 3 6 8 9 9 8 9 9 7 6 5 6 7 7 8 10 11 11 12 12 11 10 11 10 11 11 11 10 10 9 9 9 10 11 11 12 12 11 11 10 11 11 12 12 11 10 9 9 8 8 8 7 7 7 7 7 7 6 6 7 8 8 7 8 7 7 6 6 5 5 5 5 6 5 4 5 5 5 5 5 5 4 4 4 3 3 4 4
1 4 4 6 6 6 3 5 5 3 7 10 11 11 11 8 9 6 5 5 6 8 9 10 11 12 12 12 13 12 11 9 9 11 13 13 12 12 10 9 9 10 11 12 12 12 12 12 12 13 11 10 9 9 10 10 10 9 8 8 8 7 6 8 7 6 6 7 8 8 8 7 7 7 6 6 5 5 5 5 5 5 5 5 5 5 4 5 5 4 4 4 5 5 4 5 6
7 7 8 8 8 8 4 3 3 3 6 8 10 11 11 11 11 6 5 5 8 9 11 12 13 13 12 14 13 13 10 7 9 9 11 13 11 11 10 10 11 11 11 12 12 12 12 13 13 13 12 12 11 11 11 10 10 9 9 8 8 8 7 8 7 7 7 6 7 7 7 6 7 6 5 6 5 6 5 5 5 5 5 5 5 5 5 5 6 5 5 5 5 5 4 6 6
8 8 7 8 8 5 2 7 5 3 6 8 11 11 10 11 12 8 7 8 8 8 10 12 13 13 12 13 13 13 11 10 10 9 11 12 12 12 11 10 10 10 11 12 13 13 13 12 12 12 10 11 11 10 9 9 8 8 7 8 8 7 6 6 7 7 6 7 7 7 5 5 6 6 6 6 6 6 5 5 5 5 5 5 5 6 6 6 5 6 6 5 5 4 4 4 6
7 7 8 8 2 3 3 8 6 5 6 6 3 7 8 9 11 12 10 9 7 7 9 12 12 13 14 13 11 11 12 12 12 12 12 12 12 12 11 11 11 10 11 11 12 13 11 11 12 11 10 11 10 9 9 8 8 7 5 7 7 7 8 7 6 6 6 6 8 6 5 5 6 6 8 8 6 6 6 5 5 5 5 5 4 5 6 7 6 6 6 6 5 5 4 5 4
10 11 9 8 6 5 7 3 2 4 9 10 10 9 10 11 13 11 11 8 7 7 9 10 12 13 12 12 11 11 12 11 10 11 10 11 11 11 11 11 10 10 11 11 12 12 10 13 12 12 11 12 11 10 9 7 7 8 6 7 7 7 8 7 7 7 6 6 6 6 5 6 7 7 7 7 7 6 6 5 5 5 5 5 4 5 5 5 7 6 6 6 6 4 5 4 4
9 11 12 10 9 9 11 12 10 8 8 11 10 8 10 12 15 13 8 8 8 8 10 12 13 13 13 13 12 10 7 8 10 10 10 10 9 9 9 10 11 10 10 11 11 12 13 13 13 12 9 10 11 12 9 6 7 8 8 9 9 9 9 9 8 9 8 8 7 6 7 7 7 6 7 7 6 6 6 6 5 6 6 5 4 4 4 4 5 6 6 5 5 4 4 5 4
9 6 9 11 13 13 12 9 6 7 10 7 8 9 6 4 7 10 10 11 11 8 8 9 11 12 13 12 11 10 10 9 8 10 9 10 10 10 10 10 10 10 10 9 8 11 13 13 13 13 10 9 10 10 7 4 7 8 10 10 10 9 9 7 7 7 7 6 6 7 6 7 8 8 7 7 6 7 6 6 5 5 5 5 5 4 4 5 5 4 4 5 5 5 5 5 5
9 1 5 8 10 10 10 9 9 8 3 4 7 7 9 8 8 9 9 9 7 7 6 7 8 11 12 12 10 9 8 9 9 11 10 9 11 11 11 10 9 10 9 8 8 10 12 12 12 13 9 7 9 9 4 5 8 9 11 9 8 9 9 8 8 7 7 7 7 7 7 7 7 7 7 7 6 7 6 6 6 5 5 5 5 5 5 5 5 5 4 4 1 3 3 4 4
3 5 3 5 5 8 9 8 9 7 5 9 10 10 9 9 7 5 7 8 6 4 3 4 6 9 12 13 10 7 6 7 10 11 11 11 10 10 10 10 8 10 7 5 8 7 8 8 9 8 9 10 11 12 11 10 9 8 8 8 8 7 7 7 6 6 6 7 8 7 7 7 6 6 6 6 6 6 6 6 6 5 5 5 5 5 5 5 4 5 5 5 4 4 4 2 5
10 3 3 5 5 5 7 8 7 6 5 8 9 10 10 9 6 8 2 3 4 2 1 2 5 7 10 10 9 8 7 7 10 12 12 11 10 10 10 8 6 8 3 4 8 5 6 6 8 10 10 8 9 13 10 10 8 5 4 7 9 7 7 7 6 7 7 7 7 8 7 6 6 6 6 6 6 6 6 6 6 5 4 4 4 4 4 4 4 5 5 5 5 5 4 4 3
5 3 6 6 6 6 6 7 6 6 9 10 8 9 10 9 6 2 3 3 2 1 1 3 4 7 6 6 7 8 9 10 8 9 10 10 11 11 11 11 12 10 9 10 8 6 2 5 5 7 10 9 10 11 9 7 8 8 9 9 9 9 10 9 8 8 7 8 8 8 8 7 6 6 6 6 6 5 5 4 4 4 3 2 2 3 4 4 4 4 5 6 6 6 5 4 3
8 7 8 6 6 5 6 7 7 7 8 8 7 8 9 10 5 6 6 4 2 2 1 2 5 9 8 7 7 9 8 9 10 9 8 9 9 9 10 11 11 11 8 9 7 3 6 7 7 8 6 9 10 10 8 10 10 10 10 10 9 9 10 8 9 10 9 9 9 8 6 6 6 6 6 5 5 5 4 4 3 4 3 3 2 2 2 3 3 4 4 5 5 6 4 4 5
8 9 8 9 7 5 8 8 8 8 7 5 3 6 8 12 2 4 5 5 3 4 2 1 4 10 9 9 9 8 7 9 9 8 9 9 8 8 8 8 7 7 6 5 10 5 3 7 13 15 13 14 13 12 8 10 7 7 9 9 9 9 9 10 9 9 9 8 7 7 7 6 6 6 5 6 5 6 5 5 4 4 4 3 2 2 3 1 2 3 4 4 4 5 5 5 4
11 10 9 10 9 8 8 9 6 8 9 7 5 4 9 4 7 7 6 6 5 5 4 3 4 9 8 9 10 9 8 7 8 9 8 9 9 9 10 10 8 7 8 8 14 11 10 13 13 11 12 11 12 13 12 11 11 9 7 8 7 6 7 8 8 8 6 6 7 8 7 6 6 6 6 6 6 6 5 5 4 3 3 3 3 3 3 3 3 3 4 4 4 3 3 4 3
11 11 10 9 8 7 7 9 8 7 5 2 5 5 4 12 4 6 8 6 6 6 7 5 6 8 7 7 8 8 9 8 8 7 7 6 8 9 9 9 8 9 9 11 12 14 12 9 10 13 13 13 13 14 12 12 9 10 8 4 5 5 6 6 6 7 7 7 7 7 6 6 6 7 7 6 6 6 5 5 4 4 4 4 4 4 4 4 2 1 4 3 2 2 4 2 3
10 9 9 10 8 7 10 2 5 4 3 7 6 3 2 2 5 6 5 6 7 7 9 6 7 6 7 6 6 7 7 6 6 6 7 7 7 7 8 8 10 11 9 10 12 11 10 9 10 13 14 13 12 13 13 11 10 10 10 6 6 7 6 6 5 5 5 7 8 7 6 6 6 6 6 7 6 6 5 5 4 4 4 4 4 5 4 4 3 3 3 3 2 2 3 3 3
8 8 10 10 5 8 2 2 3 0 3 5 3 6 5 7 6 5 5 5 9 11 10 8 6 6 5 5 5 5 5 6 7 7 6 8 7 7 7 8 9 12 10 11 11 11 10 8 9 11 13 13 13 14 13 11 12 11 12 11 10 9 8 8 6 7 6 6 7 7 7 6 6 6 6 5 5 5 5 4 4 5 4 4 5 4 4 4 4 3 4 3 4 4 4 4 3
5 9 9 4 3 7 5 6 3 5 7 4 5 7 7 9 3 4 4 5 7 9 9 7 6 7 6 7 8 8 7 6 6 6 6 8 8 9 7 7 9 12 12 14 13 11 8 6 9 11 13 14 13 14 13 12 12 10 10 11 10 9 9 9 9 10 7 5 5 6 6 6 6 6 6 5 5 6 5 5 4 4 5 5 5 5 5 5 4 4 5 4 4 4 3 3 3
10 4 2 8 6 8 9 4 7 6 7 4 7 7 5 4 1 5 5 6 7 7 7 7 6 7 8 8 8 8 8 8 7 6 6 6 6 6 6 6 8 10 11 12 9 7 8 7 8 10 13 14 14 12 12 11 11 9 9 9 10 9 9 9 10 10 9 8 8 7 7 7 6 6 6 6 6 7 6 6 5 5 5 5 4 4 4 4 4 5 4 5 4 3 3 3 3
11 6 8 5 1 6 6 6 6 7 6 6 4 5 3 2 6 6 6 7 7 7 7 6 6 7 8 7 6 8 9 9 8 7 5 4 4 6 6 6 7 8 9 9 10 8 9 8 8 9 10 12 13 13 13 11 11 9 9 10 10 10 10 9 9 9 8 8 8 8 7 7 7 6 6 7 7 8 7 6 5 5 5 5 5 5 5 5 4 4 4 5 4 4 4 4 4
10 10 10 6 7 1 5 2 8 6 5 5 3 5 3 4 5 5 6 6 7 7 7 6 5 5 5 6 6 5 6 7 7 5 3 3 3 4 4 3 2 2 3 5 7 5 5 6 10 11 13 13 14 11 11 11 10 10 11 12 11 10 11 10 10 9 9 9 8 8 8 7 7 6 7 8 9 9 8 7 6 5 5 5 5 6 5 5 5 5 4 5 5 5 5 5 5
8 10 10 8 9 9 10 8 7 7 6 4 4 3 6 5 1 4 4 5 6 8 8 6 5 4 4 4 6 6 5 5 6 5 4 5 4 3 4 1 1 2 2 3 8 9 9 9 8 8 10 11 12 11 10 10 10 9 11 10 10 9 9 9 10 9 9 9 8 8 7 7 7 7 7 9 9 8 7 7 6 6 5 6 7 7 6 5 5 6 5 4 4 5 5 5 4
Wind_Direction
237 211 196 244 251 233 210 201 237 162 227 236 257 211 94 148 25 249 182 151 225 118 316 301 298 295 290 304 308 312 334 286 353 292 24 57 161 137 138 135 134 138 138 136 136 141 141 132 129 125 123 121 124 123 122 122 124 124 128 130 130 130 131 133 135 137 139 142 145 146 147 147 145 138 131 129 129 131 135 137 136 135 134 133 134 128 128 128 125 122 120 116 111 108 100 99 99
190 184 213 230 232 211 187 239 276 202 217 259 237 249 78 110 232 255 309 325 355 335 322 305 296 290 271 266 277 283 253 313 4 64 113 104 134 139 142 144 141 141 140 135 138 144 144 139 130 127 124 125 128 128 126 125 125 125 128 129 129 129 131 134 136 138 141 146 147 147 148 147 142 135 134 135 138 140 140 132 133 135 134 134 135 133 133 131 128 126 123 118 114 110 106 98 97
168 198 183 212 205 250 88 221 250 225 256 253 119 72 72 233 250 92 31 330 326 316 307 295 298 266 226 218 244 236 85 300 96 72 94 144 138 146 145 142 138 139 139 136 141 144 145 142 135 129 129 131 132 132 131 130 128 128 129 129 129 129 132 135 138 140 143 146 148 148 147 145 143 141 140 144 146 144 136 136 137 132 135 137 137 137 137 134 132 131 125 122 117 114 113 102 97
203 239 222 192 176 241 209 207 256 268 257 303 299 94 76 55 74 352 335 327 310 307 302 295 294 79 270 221 35 304 270 127 24 104 130 173 155 144 143 141 135 140 139 139 141 144 147 138 138 131 131 133 133 130 130 131 133 134 128 129 130 134 135 139 142 142 146 150 148 147 146 144 144 143 144 141 132 134 140 142 134 136 140 140 142 142 137 136 136 132 129 125 121 120 117 112 105
209 186 261 232 259 199 235 239 274 256 252 267 342 107 84 5 339 336 328 321 305 298 291 306 261 135 18 348 349 291 62 76 113 166 124 128 133 142 146 138 140 144 145 139 138 140 141 140 138 135 134 137 136 136 133 132 130 130 134 135 138 139 137 142 143 146 148 149 147 149 149 150 146 144 141 128 118 127 129 128 136 138 144 141 141 135 137 139 134 131 129 125 122 121 120 118 115
197 193 204 257 269 7 261 223 215 231 276 345 279 57 28 6 337 331 319 313 315 289 290 275 287 151 185 42 7 332 31 224 113 153 140 136 139 143 137 140 142 147 144 136 140 144 147 142 144 139 139 141 140 139 138 136 134 138 137 138 139 140 142 144 147 149 151 151 152 155 156 148 145 143 138 125 120 120 125 133 135 138 142 139 134 139 140 133 134 133 127 125 119 121 124 120 119
166 191 181 217 202 228 255 252 257 253 119 310 292 322 354 346 338 319 316 320 6 279 173 281 251 205 220 128 124 56 7 153 207 145 158 139 143 145 147 145 144 145 140 141 146 142 144 146 144 143 143 143 142 140 139 139 139 140 140 141 140 141 143 147 151 153 153 157 159 158 149 149 146 140 136 130 127 122 118 122 129 135 140 137 139 139 138 139 138 128 129 120 116 118 115 124 128
274 255 172 220 185 216 227 251 264 271 98 307 353 326 346 336 323 323 322 312 332 304 181 271 276 273 79 188 265 73 95 172 153 143 134 143 148 149 147 141 140 143 142 145 143 141 139 148 145 145 146 144 144 143 140 140 140 142 142 140 140 142 146 150 152 153 156 162 155 147 149 146 145 141 136 133 129 119 120 126 133 136 134 139 138 135 139 132 124 127 119 113 112 119 126 125 132
187 255 110 257 235 205 256 247 270 147 291 269 313 17 302 315 320 317 316 319 293 258 266 257 227 231 133 153 74 97 91 126 137 135 140 150 154 150 149 145 140 143 148 147 141 142 152 145 145 147 147 147 144 142 140 139 139 140 139 138 138 140 143 146 147 143 141 138 148 144 144 144 140 138 137 133 127 126 129 132 132 133 134 137 135 132 131 128 125 119 118 115 115 111 110 125 130
182 252 182 251 278 240 241 237 237 118 352 58 338 343 353 342 332 323 323 312 330 303 265 266 246 236 123 139 129 143 99 130 137 142 149 154 152 147 149 151 147 145 151 146 143 147 150 147 144 145 147 145 143 141 140 138 137 136 137 135 136 134 133 134 133 136 139 144 143 142 155 144 146 141 138 132 131 132 136 138 138 138 139 138 132 131 131 130 128 123 115 108 106 101 105 124 129
191 210 304 239 222 248 237 242 217 173 179 89 346 87 5 335 330 321 332 327 1 312 249 220 203 209 194 109 81 94 141 143 148 147 153 151 149 148 152 153 148 151 149 148 145 145 148 153 144 145 143 142 140 138 137 138 135 135 134 134 133 131 130 134 138 139 144 150 153 150 150 141 142 143 136 133 135 133 135 139 139 135 136 136 129 128 129 130 125 112 97 91 87 86 101 121 127
222 211 187 235 242 248 249 272 287 291 248 233 111 42 22 330 329 350 350 330 1 281 241 183 165 189 183 148 134 141 145 157 150 147 153 150 148 150 153 152 153 152 148 146 145 145 151 149 153 143 140 138 137 136 138 137 136 134 133 133 135 133 133 138 138 143 147 146 140 135 137 140 144 140 138 137 135 133 136 137 132 129 131 131 128 127 125 117 111 97 96 96 90 92 105 119 129
260 197 213 250 249 240 271 277 254 319 261 133 92 36 339 334 2 346 346 332 40 226 137 200 19 218 168 176 102 133 164 154 153 154 155 153 152 153 150 155 156 153 150 149 148 150 153 154 152 152 139 134 134 135 137 137 135 134 135 137 139 138 138 136 137 142 145 143 141 141 141 142 141 140 136 134 133 136 141 139 134 129 131 130 129 123 114 118 110 105 106 96 93 96 111 119 128
246 223 250 245 266 268 265 273 276 250 148 102 68 5 354 333 1 347 346 345 38 350 14 348 229 205 123 115 158 167 155 157 156 155 155 152 153 155 155 158 158 158 154 155 152 153 154 155 152 149 142 146 138 137 136 136 135 135 137 138 134 131 129 124 124 130 141 141 140 136 137 138 138 140 138 136 136 138 142 143 137 131 128 128 129 124 117 110 102 100 95 92 92 97 111 121 124
240 223 257 270 265 250 236 248 261 230 105 123 61 1 326 58 336 346 8 337 43 357 51 215 12 224 119 230 164 188 165 161 155 155 152 153 153 155 155 160 161 160 159 161 154 155 156 153 152 146 149 145 142 146 143 136 133 134 134 128 123 119 118 122 127 132 144 146 143 138 134 132 133 133 128 123 119 120 131 136 137 128 128 129 130 123 113 104 102 104 96 85 81 89 97 107 120
252 231 242 250 244 249 169 234 226 264 105 52 40 16 331 10 20 338 2 328 344 88 282 138 220 343 27 248 12 154 147 153 151 145 146 149 156 152 158 162 162 163 162 161 159 157 155 152 150 149 150 145 145 143 143 140 133 129 127 125 122 118 120 124 132 135 141 145 137 131 128 129 119 122 126 125 113 122 135 138 133 130 129 127 125 124 119 113 115 112 104 105 92 82 90 95 110
239 252 233 233 249 235 158 237 199 235 76 64 9 5 343 335 15 350 328 284 313 7 281 112 154 198 21 19 60 121 138 140 142 136 135 149 161 171 163 163 167 162 169 166 163 157 155 154 153 150 144 146 143 138 136 141 138 132 132 129 126 123 125 131 136 144 150 145 142 126 123 133 132 130 146 142 126 132 123 132 131 128 126 126 128 129 124 122 124 123 120 116 120 111 95 98 103
204 213 233 233 248 244 87 274 12 25 295 9 350 1 338 324 353 1 319 215 293 270 287 138 183 122 32 62 95 115 131 137 135 123 126 163 174 180 165 173 168 167 177 183 167 165 156 153 149 142 145 151 142 143 136 138 144 140 141 143 144 136 137 141 153 155 151 144 138 142 126 148 146 147 138 147 144 139 137 131 132 134 129 127 124 122 120 124 128 127 132 125 129 137 155 153 141
208 220 232 246 236 43 34 43 18 317 3 332 335 339 334 323 332 351 320 337 332 291 186 178 157 81 113 101 108 120 115 105 111 135 175 178 179 167 190 200 165 223 167 205 172 135 157 148 145 151 145 145 145 141 150 141 141 145 146 149 144 148 146 162 154 152 155 138 167 151 157 184 174 133 154 142 134 138 128 126 131 133 126 127 125 121 120 121 124 131 134 139 128 175 200 150 168
221 251 232 239 336 39 18 54 40 330 333 314 326 327 321 316 320 334 308 325 291 345 31 172 182 144 122 117 118 117 118 166 157 159 171 166 180 174 174 172 286 193 180 323 115 302 312 223 148 148 144 144 149 145 141 144 132 148 148 149 151 150 153 154 154 158 157 163 175 141 156 161 136 142 149 146 135 131 125 125 126 131 131 133 129 130 128 128 130 137 139 148 184 189 172 166 161
180 234 241 304 55 271 139 200 294 319 311 317 312 316 293 332 328 301 316 302 271 73 52 354 157 134 132 138 142 148 158 155 158 151 159 157 90 46 34 6 34 27 27 333 17 137 208 202 144 146 145 145 144 141 136 126 138 175 160 153 148 147 154 154 152 159 156 153 149 159 154 152 146 135 148 152 153 144 146 147 152 153 155 149 185 166 170 148 177 156 154 197 186 191 181 170 171
232 235 246 279 264 264 113 259 321 307 304 292 301 298 318 327 293 292 298 298 321 11 25 46 120 138 151 156 158 163 159 156 163 163 162 157 151 137 130 117 88 60 356 129 108 81 221 221 162 149 149 155 136 138 153 151 161 183 154 150 142 149 151 150 154 155 150 152 159 154 147 150 148 142 147 143 136 145 149 153 162 162 165 160 192 173 170 170 180 169 170 177 181 193 178 179 186
240 226 243 247 250 270 276 280 287 298 289 296 300 313 312 297 301 295 300 290 312 348 9 70 133 147 162 162 162 162 165 160 168 173 168 169 166 158 159 158 135 139 213 161 162 171 176 213 159 153 151 153 150 156 137 150 156 141 145 150 150 148 156 144 152 157 152 152 154 148 154 148 148 144 143 143 146 156 149 154 154 155 154 156 162 157 153 167 175 175 170 169 172 182 181 183 200
240 259 186 248 258 256 266 275 280 273 283 291 301 302 287 294 287 332 289 294 338 343 286 145 141 145 157 166 168 167 167 159 168 172 179 181 174 181 132 145 135 130 137 178 195 194 173 181 158 158 156 151 150 142 132 115 118 138 147 147 156 141 152 168 156 155 150 154 152 150 146 150 147 142 136 140 140 144 147 140 138 141 139 133 126 117 140 145 152 163 166 163 172 176 181 186 191
232 245 250 258 254 255 262 267 270 279 281 282 288 284 285 288 301 303 289 308 351 169 152 138 143 149 160 171 169 169 170 166 172 176 183 193 172 138 115 170 209 135 128 167 194 189 179 158 167 165 158 158 143 120 100 115 138 164 155 153 154 157 161 161 139 138 162 154 148 142 139 146 144 135 140 139 128 125 110 120 130 128 137 124 116 107 110 100 83 23 36 140 144 132 173 192 195
226 246 251 258 260 264 258 261 267 270 272 275 280 276 279 290 328 276 281 76 83 143 137 145 148 156 167 171 171 170 171 179 174 177 186 180 162 169 167 182 259 277 160 167 172 186 171 156 162 167 151 134 127 117 115 143 151 154 145 149 153 164 161 161 151 155 164 141 142 129 130 117 132 141 145 146 144 143 141 138 135 125 118 113 105 80 90 129 116 111 343 27 93 110 247 240 203
162 236 250 263 272 276 270 269 274 276 272 269 268 276 278 332 286 235 104 94 141 148 148 145 154 162 167 166 169 172 177 180 175 171 178 173 165 187 160 161 264 27 299 163 165 164 160 162 161 153 138 128 106 96 131 151 159 124 133 140 160 154 157 155 128 151 217 162 139 135 126 130 144 148 154 150 140 147 144 143 142 136 134 125 120 124 126 129 138 134 143 135 123 134 165 221 207
253 266 265 254 256 256 256 254 260 259 256 244 250 265 274 258 261 264 87 111 167 168 159 154 157 166 166 163 170 172 180 181 175 172 181 185 172 175 160 168 140 70 113 133 153 152 154 163 160 157 143 128 117 125 131 138 120 143 153 154 149 152 188 180 169 184 178 144 138 137 139 147 157 155 152 144 145 145 144 143 141 145 130 133 130 127 136 148 146 134 162 91 109 183 172 176 157
245 245 253 237 231 243 226 238 252 250 262 246 256 268 247 222 238 207 117 127 187 182 175 157 165 163 165 163 172 176 185 182 184 181 190 191 174 156 168 155 143 126 124 123 152 159 160 154 157 161 146 134 128 133 138 129 146 164 175 159 160 170 199 188 177 174 145 153 146 153 158 149 159 154 155 153 152 148 135 143 139 125 125 119 112 124 137 156 167 167 148 149 179 174 172 156 154
262 237 258 264 231 236 180 219 242 239 243 293 229 248 230 195 213 132 136 162 179 180 180 163 171 172 166 169 179 179 181 186 190 189 182 186 176 161 160 143 141 138 149 156 152 164 153 134 137 151 156 150 134 129 124 129 158 158 179 166 164 171 177 188 191 144 179 167 164 162 158 153 160 150 153 152 151 137 139 138 126 130 119 134 141 155 170 181 167 154 155 175 172 179 167 153 151
235 185 229 257 251 179 125 200 151 249 96 223 214 250 236 144 152 96 135 176 184 185 177 171 181 184 168 174 184 187 185 191 190 185 176 176 167 164 156 142 144 138 141 158 174 162 155 146 139 134 136 143 151 135 132 133 139 155 183 178 174 172 177 186 174 30 160 176 163 157 160 157 160 158 155 148 146 149 147 141 147 144 145 153 155 163 172 162 159 154 167 173 174 160 150 141 137
232 227 220 210 241 132 144 150 226 290 119 194 215 238 245 175 104 111 133 174 194 190 180 173 190 198 183 179 187 190 190 191 197 191 183 162 161 157 158 149 142 138 145 146 150 152 161 164 149 141 136 136 145 146 122 123 136 184 189 180 178 176 175 184 163 174 183 213 163 161 163 164 164 164 154 156 157 159 151 150 157 151 155 162 159 158 173 171 164 154 162 182 173 170 158 149 119
210 240 257 196 213 153 204 160 167 259 265 155 243 282 130 211 135 114 132 180 199 198 191 182 191 204 199 194 187 188 184 193 194 198 193 179 158 153 151 148 147 145 146 147 146 153 154 168 171 153 148 140 138 127 127 142 152 178 169 176 188 178 167 177 174 177 159 181 163 163 158 164 166 163 161 172 163 160 155 163 152 157 164 162 165 174 182 177 170 167 172 182 190 169 152 121 122
203 207 243 245 241 161 230 126 190 194 273 224 182 250 242 320 149 132 152 174 197 205 201 185 203 207 214 202 194 193 185 190 195 194 182 182 170 157 149 154 158 156 147 148 151 152 153 158 159 145 128 108 103 118 146 138 150 186 174 177 177 173 163 178 166 184 160 168 165 160 156 163 166 162 175 164 165 164 165 159 148 152 160 162 168 172 171 176 168 167 159 190 187 205 146 140 138
209 187 224 217 221 242 292 232 112 255 215 257 241 242 255 249 239 158 157 185 200 210 201 193 199 215 217 218 205 200 194 191 195 191 176 179 170 160 156 160 167 164 160 154 151 156 155 153 150 130 119 135 152 155 161 156 173 181 165 169 174 172 162 171 177 168 171 172 176 160 162 168 176 171 176 170 164 170 169 153 157 165 162 161 160 166 164 175 170 165 169 161 207 238 108 137 137
297 215 240 272 248 187 217 207 314 298 276 261 247 247 227 223 226 132 154 181 205 206 205 197 205 207 220 223 218 207 202 192 190 188 172 176 175 170 169 166 171 170 169 161 161 159 156 151 148 133 146 161 160 151 155 162 168 164 167 174 175 178 165 171 180 173 167 177 179 169 169 178 176 178 174 169 165 173 168 160 162 167 160 165 162 167 167 169 176 163 158 165 160 127 145 127 135
2 247 259 250 253 254 170 240 259 257 278 257 255 249 251 250 248 153 151 170 205 217 208 209 207 208 211 220 223 217 203 200 181 191 184 178 167 172 162 164 166 172 173 166 164 156 155 155 148 155 161 157 157 157 166 167 167 170 170 176 182 172 171 172 174 169 176 180 179 173 174 185 169 176 172 164 175 172 180 164 165 165 162 164 165 167 166 157 156 148 155 172 160 161 155 164 144
245 254 250 251 241 255 183 212 233 241 268 263 251 253 249 248 247 199 168 198 224 220 217 213 215 212 208 216 222 222 207 186 191 184 180 171 161 156 156 174 171 171 172 171 168 164 163 158 157 161 166 159 171 176 171 172 175 173 170 179 183 172 168 175 175 174 181 169 178 175 178 177 168 166 174 173 181 189 174 167 173 166 170 169 167 153 157 157 158 154 166 168 183 164 168 170 157
235 247 249 253 251 269 261 247 241 241 231 259 254 253 250 242 242 216 215 237 244 236 229 222 220 216 214 214 214 215 207 197 197 186 177 163 155 166 172 171 174 176 172 176 172 166 164 164 164 167 170 170 175 177 173 172 177 169 179 173 177 163 169 177 175 166 169 170 174 172 174 170 162 170 181 185 187 187 178 176 174 167 177 167 164 156 157 159 170 166 174 174 165 172 166 172 177
233 224 235 241 260 256 221 166 198 187 249 285 308 280 258 253 252 252 247 245 233 231 229 226 221 225 223 219 216 211 205 200 198 182 173 158 160 167 175 173 176 177 176 181 178 172 166 167 166 174 170 176 173 172 181 166 168 163 165 163 163 165 163 165 168 159 168 176 172 177 163 171 177 184 188 185 192 179 179 182 173 170 175 176 173 168 167 170 172 177 180 170 172 165 172 165 195
223 241 248 250 235 224 256 298 187 257 255 249 265 260 252 238 237 229 218 202 206 208 222 227 228 227 225 224 223 217 207 202 190 182 174 165 159 164 169 172 166 177 183 183 180 177 168 165 174 181 176 172 172 163 168 157 161 162 158 159 160 162 155 161 164 166 173 179 174 173 164 183 188 196 188 191 185 175 181 183 176 172 177 177 178 173 175 180 171 185 181 173 182 182 162 166 175
238 221 237 254 270 272 261 255 265 257 250 206 222 243 241 223 222 232 200 177 208 206 212 215 218 224 222 222 217 220 206 195 195 170 171 162 153 156 159 162 169 173 183 185 182 179 172 171 176 181 169 168 165 159 156 160 170 160 167 166 169 171 170 168 174 168 170 175 176 175 175 183 193 191 187 186 177 171 174 177 180 173 169 177 183 179 174 173 184 190 169 175 171 203 165 163 172
247 233 197 236 246 251 255 252 223 241 250 144 200 247 257 202 213 219 215 214 216 186 210 227 223 218 220 218 211 206 197 184 178 157 167 160 153 153 157 165 171 173 179 183 179 178 179 175 175 177 174 166 162 143 127 146 159 180 173 175 175 174 171 171 169 164 168 167 168 174 173 187 190 181 178 173 171 169 165 168 169 179 168 178 171 182 182 181 180 194 159 180 189 165 189 173 179
245 132 233 250 250 239 238 236 227 254 352 143 219 238 270 255 231 228 199 214 218 207 221 227 227 215 216 215 205 201 194 185 168 171 158 150 150 152 160 164 175 176 175 174 180 183 188 178 176 176 167 129 78 90 116 187 183 187 182 183 182 179 179 166 167 164 167 163 165 175 176 178 183 175 166 172 170 168 156 163 169 180 177 175 178 187 183 184 174 169 175 175 181 181 189 207 161
256 93 233 250 252 236 227 218 222 238 264 242 211 221 247 250 243 186 180 218 180 178 206 210 212 208 199 200 194 185 184 180 167 162 148 150 145 152 154 164 168 177 172 181 173 177 193 171 165 154 131 113 125 134 173 191 203 188 186 180 184 178 174 159 158 160 165 160 168 175 177 168 168 169 171 167 170 165 159 165 172 171 179 178 185 180 181 175 177 152 165 174 180 194 200 213 172
237 228 266 281 263 247 228 217 219 208 232 242 224 190 244 251 227 197 142 236 162 98 92 143 175 190 194 182 178 165 156 152 159 148 143 144 148 149 154 157 123 55 37 121 296 258 158 165 153 134 117 117 137 168 183 187 209 194 199 200 178 173 166 154 163 165 166 165 168 170 167 167 165 163 161 164 162 164 161 158 167 164 172 178 200 167 170 169 175 167 171 172 179 187 199 207 156
25 220 230 205 210 199 202 238 234 211 231 237 226 188 241 260 249 56 191 107 27 293 153 117 150 145 120 122 156 159 157 147 147 153 153 151 154 157 159 151 122 149 178 171 176 248 232 169 174 157 129 154 163 189 186 171 200 194 199 201 183 171 164 162 164 167 165 172 170 169 172 167 166 158 155 156 160 157 152 162 163 162 164 175 197 170 185 181 173 174 173 176 180 193 182 191 197
224 228 229 193 187 186 206 202 214 232 236 231 189 207 224 249 204 83 81 100 81 346 8 156 161 135 131 126 134 144 162 161 154 163 158 158 165 167 159 144 153 169 166 164 135 162 193 181 157 131 153 152 169 189 176 184 193 194 195 184 180 173 167 167 167 166 169 172 169 170 164 161 154 149 153 151 155 154 155 153 153 150 155 178 182 199 195 184 184 180 182 184 178 185 175 186 184
218 226 230 221 193 188 209 200 210 223 241 122 162 211 221 240 62 98 78 49 34 15 308 192 167 129 135 136 127 135 164 177 179 176 176 174 177 172 165 156 167 162 171 135 109 164 135 171 172 181 168 169 170 144 179 192 205 206 188 180 176 175 171 168 169 174 168 168 167 163 159 156 149 151 154 156 151 159 156 150 156 160 151 168 179 184 185 184 187 184 177 184 171 176 174 180 184
209 217 213 220 216 202 221 214 224 231 210 133 206 164 248 237 97 43 52 48 34 29 42 175 168 135 156 155 141 141 146 157 166 172 182 184 174 173 174 168 171 172 161 130 109 113 186 190 178 169 166 164 159 166 171 182 186 188 178 164 150 181 181 175 174 171 170 159 159 157 159 150 154 159 158 159 155 164 161 151 152 139 126 136 156 161 156 166 165 170 162 153 148 133 129 161 155
210 221 223 228 237 221 219 227 222 228 245 116 151 206 212 229 110 44 63 52 53 61 60 75 98 125 139 144 148 152 157 158 160 167 164 170 178 181 177 169 158 161 157 143 136 160 189 184 166 164 171 170 168 167 170 179 180 180 165 152 140 159 176 186 181 166 163 156 149 153 155 159 165 165 164 152 152 157 146 151 139 134 131 129 134 141 142 133 134 123 113 110 128 120 129 152 126
204 215 232 238 230 222 246 327 300 258 205 173 161 241 323 29 132 94 75 68 76 81 79 93 97 105 121 137 149 155 153 168 176 169 153 162 160 168 173 171 160 154 157 162 154 165 177 181 176 177 178 170 169 168 167 172 177 166 151 172 164 175 197 184 161 147 166 159 152 160 161 165 159 154 149 151 151 157 152 141 145 133 137 139 135 133 139 126 108 108 104 105 111 129 141 150 136
166 201 214 224 245 249 226 160 97 115 267 260 153 230 170 126 149 101 77 87 74 75 79 86 110 125 143 147 149 160 149 150 160 158 158 158 164 167 178 176 162 154 155 166 163 166 177 177 177 176 170 162 169 169 164 172 169 162 163 170 184 175 178 183 159 154 165 165 162 166 158 159 144 148 144 146 151 151 152 157 146 138 145 140 133 132 128 121 127 119 108 110 113 119 136 132 132
180 218 213 175 215 278 249 237 157 233 243 214 201 234 186 204 179 162 121 84 77 82 82 89 98 117 129 154 142 143 149 147 142 144 159 168 174 173 176 183 177 167 160 160 169 165 157 172 177 172 168 163 167 169 168 172 174 177 176 178 176 174 174 179 178 170 165 161 160 160 147 153 155 143 150 155 157 153 153 158 151 149 148 147 142 140 133 126 136 122 115 115 107 117 128 131 139
233 242 340 211 187 206 210 240 226 226 223 234 209 221 245 210 138 169 163 124 94 98 99 110 107 111 97 99 124 137 141 150 151 160 173 167 158 159 160 175 177 176 161 153 137 150 151 169 175 170 171 170 168 167 172 178 181 179 176 174 170 175 181 181 174 173 170 174 170 168 166 156 146 153 159 157 161 160 159 159 159 158 158 155 152 136 137 142 136 124 125 120 118 120 111 113 114
235 270 252 225 228 252 211 209 249 238 234 220 210 190 229 78 120 168 125 119 141 123 114 108 120 114 114 121 126 144 153 152 144 137 136 131 133 143 156 176 181 177 169 153 144 151 151 159 177 174 169 171 169 174 176 180 182 177 172 174 173 175 175 171 172 172 174 180 175 170 162 159 159 165 166 163 164 161 161 163 167 165 165 163 156 152 157 140 141 128 137 128 115 132 125 121 127
196 216 225 195 226 226 287 211 238 234 245 233 228 239 144 71 66 84 114 123 128 138 126 118 123 119 118 116 129 135 143 141 117 93 88 119 116 108 107 172 178 187 189 155 126 115 124 161 185 182 178 175 177 176 182 188 185 182 177 175 171 171 171 169 168 171 176 177 168 168 167 166 163 169 162 168 164 163 164 168 165 171 168 162 156 156 153 150 142 137 128 125 135 134 126 112 124
227 215 221 216 209 201 210 220 208 249 250 256 225 220 94 82 343 87 125 113 118 103 114 110 120 102 103 116 121 136 135 107 81 77 59 46 36 38 87 227 259 250 212 136 129 155 177 190 187 192 187 180 174 180 186 188 190 187 179 173 169 163 166 165 164 166 174 170 168 169 163 165 164 158 169 167 165 162 165 167 163 163 164 158 157 151 155 152 140 136 135 140 136 128 105 104 123